GEFSMA_500_meanwind_138.txt.gz
Wind_Speed
25 24 23 21 21 20 19 19 19 19 20 21 22 24 24 25 26 28 29 30 32 33 34 34 35 36 37 37 37 38 39 39 40 41 41 42 42 42 42 41 41 41 41
26 25 24 22 22 21 21 20 20 20 21 22 23 25 25 26 27 29 30 31 33 33 34 35 36 37 37 38 39 39 40 40 41 42 43 44 44 44 44 43 43 43 42
27 26 24 24 23 22 22 22 21 21 22 23 24 25 26 27 28 30 31 32 33 34 34 35 36 37 38 39 40 40 41 42 43 44 45 45 45 45 45 45 45 44 44
28 27 25 25 24 23 23 23 22 23 23 24 25 26 27 28 29 31 32 33 34 34 35 36 37 38 39 40 41 42 42 43 44 45 46 46 47 46 46 46 46 46 46
30 28 27 26 25 24 24 23 23 24 24 25 26 27 28 29 30 31 33 33 34 35 36 37 38 39 40 41 42 43 44 45 46 47 47 48 48 48 48 48 48 48 48
31 30 28 27 26 25 25 25 25 25 25 26 27 28 29 29 31 32 33 34 34 35 37 38 39 40 41 42 43 44 45 46 47 48 49 49 49 50 50 50 50 50 50
33 31 29 28 27 26 26 26 26 26 26 27 28 29 29 30 31 32 33 34 35 36 38 39 40 42 43 44 44 45 46 48 49 50 50 50 51 51 51 51 52 52 53
34 32 30 29 28 28 27 27 27 27 27 27 28 29 30 31 32 33 34 35 36 37 39 40 42 43 44 45 46 47 48 49 50 50 51 51 52 52 53 53 54 55 56
34 33 32 30 29 29 28 28 28 28 28 28 29 30 30 31 32 33 34 36 37 38 39 41 43 44 45 46 47 48 49 50 51 52 53 53 54 54 55 56 57 58 59
35 34 33 32 31 30 29 29 29 29 29 29 30 30 32 33 33 34 35 36 38 39 40 42 43 45 46 47 48 49 50 51 52 53 54 54 55 56 57 58 60 61 62
35 34 33 32 32 30 30 30 30 30 30 30 31 31 32 33 34 35 35 37 38 40 41 42 44 45 47 48 49 51 51 52 53 54 55 56 57 58 60 61 63 64 64
35 34 33 33 32 31 31 31 31 31 31 31 32 33 33 34 34 35 36 37 39 41 42 43 44 46 48 49 50 51 52 53 54 55 57 58 59 60 62 63 64 64 63
35 35 34 33 33 32 32 32 31 31 32 32 33 33 34 35 36 36 37 38 39 41 42 44 45 47 48 50 51 51 53 54 55 56 58 59 61 62 63 64 65 64 61
36 35 35 34 33 33 33 32 32 32 33 33 34 34 35 36 36 38 39 40 41 41 43 44 45 47 48 50 51 52 53 55 56 58 59 60 62 64 64 65 64 62 60
37 36 35 35 34 34 33 33 33 34 34 34 34 35 35 36 37 39 40 41 42 43 43 44 46 48 49 51 52 53 54 56 57 59 60 62 64 64 65 65 63 61 60
38 37 36 36 35 35 34 34 35 35 34 35 35 35 35 37 38 39 41 42 43 44 44 45 47 48 50 51 53 54 56 57 58 60 62 63 65 65 65 64 61 60 59
38 37 37 37 36 36 35 35 36 36 36 36 36 35 36 37 39 40 41 42 43 44 45 46 47 48 50 52 54 55 57 58 59 61 63 64 65 65 64 61 59 58 57
39 38 38 37 37 36 36 36 36 36 36 36 36 36 37 38 39 40 41 42 43 44 45 46 47 49 51 52 54 56 57 59 60 62 63 65 65 64 62 60 59 58 56
40 39 38 38 38 37 37 36 36 36 37 36 36 36 37 39 39 40 41 42 43 43 45 46 47 49 51 53 55 57 58 60 61 63 65 65 64 62 60 58 57 57 55
40 40 39 39 39 38 38 37 37 36 36 36 36 37 38 38 39 39 41 41 42 44 45 46 47 49 51 53 55 57 58 60 61 63 65 64 62 60 59 57 57 55 53
41 40 40 39 39 38 37 37 36 36 36 36 36 37 37 38 38 39 40 41 42 43 45 46 48 50 52 54 56 57 58 59 61 63 63 62 60 58 57 56 55 53 52
42 41 40 40 39 38 37 36 35 35 36 36 36 36 37 37 38 38 39 41 42 43 44 46 48 50 52 54 56 57 58 59 60 61 61 60 59 57 57 55 54 52 50
43 41 41 40 39 38 37 36 36 36 36 35 35 36 36 37 37 38 40 41 42 42 44 46 48 50 52 54 56 57 58 59 59 59 59 59 58 57 56 55 53 50 48
43 42 41 40 39 38 37 36 36 36 36 35 35 36 36 36 37 38 39 40 40 41 44 46 48 50 52 53 55 56 58 58 59 59 59 58 57 57 56 53 51 48 46
44 42 40 40 39 38 37 36 36 36 35 35 35 35 35 35 36 37 38 38 40 42 44 46 48 50 51 53 55 56 57 57 58 58 58 58 56 55 54 52 49 47 45
43 42 40 39 38 37 36 36 35 35 35 34 35 35 34 34 35 36 37 38 39 42 44 46 48 49 51 53 55 56 56 56 57 57 57 57 55 53 50 50 48 46 45

GEFSMA_500_meanwind_144.txt.gz
Wind_Speed
32 31 30 28 27 25 24 23 21 20 19 19 19 19 20 21 21 22 23 24 25 26 27 29 30 31 32 33 34 35 36 37 38 39 40 41 42 43 44 44 44 44 44
34 32 31 30 28 26 25 24 23 22 21 20 20 20 21 22 22 23 24 25 26 27 29 30 31 32 33 34 35 36 37 38 39 40 41 43 44 45 45 45 46 46 46
36 34 32 31 29 28 26 25 24 23 22 22 21 21 22 22 23 24 25 26 27 28 30 31 32 33 34 35 36 37 38 40 41 42 43 44 45 46 46 47 47 47 47
37 35 34 32 30 28 27 26 25 24 24 23 23 23 23 24 25 25 26 27 28 29 31 32 33 34 35 36 37 39 40 41 42 43 45 46 47 47 48 48 48 49 49
39 37 35 33 31 30 29 28 27 26 25 25 24 24 24 25 26 27 27 29 29 31 32 33 34 35 36 37 39 40 41 42 44 45 46 47 48 49 49 50 50 50 51
40 39 37 35 33 31 30 29 28 27 27 26 26 26 26 26 27 28 29 30 30 32 33 34 35 36 37 39 40 41 43 44 45 46 48 49 50 50 51 51 52 52 53
41 39 38 36 34 33 31 30 29 29 28 27 27 27 27 27 28 29 30 31 32 33 34 35 36 37 38 39 41 42 44 45 47 48 49 50 51 52 52 53 53 54 55
42 40 38 37 35 34 33 32 31 30 29 29 28 29 28 29 29 30 31 32 33 34 35 36 37 38 39 40 42 43 45 46 48 49 50 52 53 53 54 54 55 55 57
44 42 40 38 37 35 34 33 32 31 31 30 30 30 30 30 31 32 32 33 34 35 36 37 39 39 40 41 43 44 46 47 49 50 52 53 54 54 55 55 56 57 59
45 43 41 39 38 36 36 35 34 33 32 32 31 31 31 31 32 32 33 34 34 36 37 38 39 40 41 42 44 45 47 48 50 51 53 54 55 55 56 57 58 59 61
45 43 42 40 39 38 37 36 35 34 34 33 33 32 32 33 33 34 34 34 35 36 38 39 40 41 42 43 45 47 48 49 51 52 54 55 55 56 57 58 59 61 62
45 44 42 41 40 39 38 37 36 35 35 34 34 34 34 34 34 35 35 35 36 37 39 40 41 42 43 44 46 48 49 50 52 54 55 55 56 57 58 59 61 62 63
45 44 43 42 40 39 38 37 36 36 36 35 35 35 35 35 35 36 36 36 37 38 39 41 42 43 44 45 47 48 50 51 53 55 55 56 57 58 59 60 62 63 62
45 44 44 43 41 40 38 38 37 37 37 36 36 36 36 36 36 36 37 37 38 39 40 41 42 44 45 46 47 49 50 52 54 55 56 57 58 59 60 62 62 62 60
45 44 43 43 41 40 39 38 38 37 37 37 37 37 37 36 36 37 37 38 39 39 40 42 43 44 45 47 48 50 51 53 55 55 56 58 59 60 61 62 61 60 59
46 45 44 43 42 41 40 39 38 38 37 37 37 37 37 37 37 38 38 39 40 41 41 42 43 45 46 47 49 50 52 54 55 56 57 58 59 60 61 60 59 58 57
46 45 45 44 43 41 40 39 38 38 38 37 37 37 37 37 38 38 39 39 41 41 42 42 44 45 47 48 49 51 52 54 55 56 57 58 59 60 59 59 58 57 56
47 46 45 44 43 42 41 39 39 39 38 38 38 38 38 38 38 38 39 40 41 42 42 42 43 45 46 48 49 51 53 54 55 56 57 58 59 58 58 58 58 57 55
47 46 45 44 42 41 41 40 39 39 38 38 38 38 38 38 38 39 39 40 41 42 42 43 43 45 46 47 49 51 53 54 55 56 57 58 58 58 58 57 57 56 55
48 47 46 45 43 42 41 40 40 39 38 38 38 38 38 38 39 39 40 40 41 41 42 42 43 44 46 47 49 51 52 53 54 55 56 57 57 57 57 57 57 55 54
48 47 47 46 45 43 42 41 40 39 39 39 38 38 38 38 39 39 39 40 41 41 41 41 43 44 46 47 49 51 52 53 54 55 56 57 57 57 57 56 55 54 53
49 48 47 46 46 44 42 42 40 40 39 38 38 38 38 39 38 39 39 39 39 40 40 42 43 44 46 47 49 51 51 52 54 55 55 56 57 57 57 56 55 54 53
49 48 47 47 46 44 43 42 40 39 39 38 38 38 38 38 38 38 38 38 39 40 40 41 42 44 46 47 49 50 51 52 54 54 55 56 57 57 57 55 54 53 51
48 47 47 46 45 43 42 41 40 39 39 38 38 37 37 37 37 37 38 38 39 39 40 41 43 44 46 47 48 49 50 52 53 54 54 56 57 57 56 55 53 51 49
48 47 46 45 44 43 41 41 40 40 38 38 38 37 37 36 36 36 37 38 38 39 40 41 43 44 45 46 47 48 49 51 53 53 54 54 55 55 54 53 51 49 47
49 47 45 44 44 43 42 41 41 40 39 39 38 37 36 35 35 36 37 38 37 38 40 41 42 43 44 45 45 47 49 51 52 52 52 53 54 53 51 50 48 46 45

GEFSMA_500_meanwind_150.txt.gz
Wind_Speed
40 38 37 36 35 33 32 31 29 28 27 26 25 24 24 23 23 23 23 24 25 26 27 28 29 29 30 32 33 34 35 37 38 39 39 40 42 43 44 44 45 46 47
42 40 38 38 36 35 34 32 31 30 28 27 27 26 25 25 24 24 25 25 26 27 28 29 30 31 32 33 34 36 37 38 39 39 41 42 43 44 45 46 47 48 49
43 41 40 39 37 36 35 33 32 31 30 29 28 27 27 26 26 26 26 27 27 28 29 30 31 32 33 34 36 37 38 39 40 41 42 43 44 45 46 48 49 50 50
44 43 42 41 39 37 36 34 33 32 31 30 29 29 28 27 27 27 28 28 29 29 30 31 32 33 35 36 37 38 39 40 41 42 43 44 46 47 48 49 51 52 52
46 45 43 41 40 38 37 35 34 33 32 31 30 30 29 29 29 29 29 29 30 30 31 32 33 34 36 37 38 39 41 42 42 43 44 46 47 48 50 51 52 53 54
47 46 44 42 41 39 38 36 35 34 33 32 31 31 30 30 30 30 30 30 31 31 32 33 34 35 37 38 40 41 42 43 44 45 46 47 48 50 51 53 54 55 56
48 47 45 43 42 40 38 37 36 35 34 33 32 32 31 31 31 31 31 32 32 32 33 34 35 36 38 39 41 42 43 44 45 46 47 48 50 51 53 54 56 57 57
48 47 46 44 43 41 39 38 37 36 34 33 33 33 32 32 32 32 32 32 33 33 34 35 36 38 39 40 42 43 44 45 46 47 48 49 51 53 54 56 57 59 60
48 47 46 45 44 42 40 39 38 36 36 35 34 34 33 33 33 33 33 33 34 34 35 36 37 39 40 41 43 44 45 46 47 48 49 51 53 54 56 58 59 61 61
49 48 47 46 45 43 42 40 39 38 37 36 36 35 35 34 34 34 34 34 34 35 36 37 39 40 41 42 43 44 45 46 47 48 50 52 54 56 58 60 61 61 62
50 49 48 47 46 45 43 42 40 39 38 37 36 36 36 35 35 35 35 35 35 36 37 38 40 41 42 42 44 45 46 47 48 49 51 53 55 57 59 61 61 61 61
49 47 47 46 46 45 44 42 41 40 39 38 37 37 37 36 36 36 36 36 37 37 38 39 40 41 42 43 44 45 47 48 49 51 53 54 57 59 60 61 61 61 61
48 48 47 47 46 45 44 43 42 40 39 38 38 37 37 37 37 37 37 37 37 38 38 40 41 42 43 44 45 46 47 49 50 52 54 55 58 60 60 61 60 60 60
47 47 46 47 46 45 44 43 42 41 40 39 38 38 38 37 37 37 37 37 38 38 39 40 41 42 43 44 45 47 48 49 51 52 54 57 59 60 60 60 60 60 60
46 46 46 47 46 45 44 43 42 41 40 39 39 38 38 37 37 37 37 38 39 39 39 40 41 42 43 45 46 47 48 50 51 53 55 57 59 59 59 59 60 60 59
46 46 46 46 46 45 44 43 42 41 40 39 38 38 37 37 37 38 38 39 39 40 40 41 41 41 43 45 47 48 49 51 52 54 56 57 58 58 58 59 60 59 59
46 46 45 46 45 45 44 43 42 41 40 39 38 37 37 37 37 38 38 38 39 40 40 41 41 42 44 45 46 47 49 50 52 54 56 57 57 57 58 59 59 58 57
47 47 46 45 44 44 44 43 42 41 40 39 37 37 37 37 37 37 37 38 39 39 40 40 41 42 44 45 46 47 49 50 52 54 55 56 57 57 58 58 58 57 56
48 48 47 45 43 43 43 42 41 41 40 39 38 37 37 36 36 36 37 38 38 39 40 40 41 43 43 44 46 48 49 50 52 53 54 55 56 57 57 57 56 56 55
49 48 46 45 44 42 41 41 40 40 39 39 38 37 36 36 36 37 37 37 38 38 39 40 41 42 43 44 46 48 49 50 51 52 54 54 56 57 57 56 55 55 54
49 47 46 46 44 43 41 41 40 40 39 38 37 37 36 36 36 36 36 37 38 38 39 40 41 42 43 44 46 48 49 50 50 51 53 54 55 55 54 53 53 54 54
49 48 47 46 45 43 42 41 40 40 40 39 38 37 36 35 35 35 36 37 38 38 39 40 41 42 43 45 46 47 48 49 50 51 52 53 54 53 52 52 53 53 54
48 49 46 46 45 44 42 41 41 40 39 38 37 37 35 34 35 35 36 37 37 38 39 40 41 41 43 44 46 47 47 48 49 50 51 51 52 52 52 52 53 54 53
48 48 48 47 45 43 43 41 40 39 38 38 37 37 35 34 35 36 36 37 38 39 39 40 40 41 42 44 45 45 46 47 48 49 49 50 50 50 51 52 53 53 52
47 47 48 48 46 45 43 41 40 39 38 37 37 36 34 34 35 36 36 37 37 38 39 40 40 40 42 43 44 45 45 46 47 48 49 49 49 49 50 51 52 52 49
46 46 46 46 46 45 44 42 41 40 38 37 36 35 35 35 35 35 35 35 35 37 38 39 39 40 41 42 43 43 44 45 46 47 47 48 48 48 48 50 50 49 47

GEFSMA_500_meanwind_156.txt.gz
Wind_Speed
42 41 40 39 38 37 35 34 33 33 32 31 30 29 29 28 27 27 27 27 27 27 27 28 28 29 30 30 31 32 34 35 36 37 38 40 41 42 43 44 44 45 46
44 42 41 41 39 38 37 36 35 34 33 32 31 30 30 29 28 28 28 28 28 28 28 29 29 29 30 31 32 33 35 36 37 38 40 41 42 43 44 45 46 47 48
46 45 43 42 41 40 39 38 36 35 35 34 33 32 31 30 30 29 29 29 29 29 29 29 30 30 31 32 33 34 36 37 38 39 41 42 43 45 46 46 47 48 49
48 46 45 44 43 42 41 40 38 37 36 35 34 33 32 31 30 30 30 30 30 29 30 30 31 31 32 33 34 35 36 38 39 40 42 43 45 46 47 48 48 49 50
50 49 47 46 44 44 42 41 40 39 37 36 35 34 34 32 31 31 31 31 31 31 31 31 32 32 33 34 35 36 37 39 40 41 43 44 46 47 48 48 49 50 52
52 50 48 47 46 45 45 43 42 41 39 37 37 35 35 34 32 31 32 32 32 32 32 32 33 33 34 35 36 37 38 40 41 43 44 45 46 48 49 49 50 52 53
54 52 50 48 47 46 46 45 44 42 41 39 38 37 35 35 33 33 33 33 33 33 33 34 34 34 35 36 37 38 39 41 42 43 45 46 47 49 50 50 52 53 55
56 53 51 50 48 46 46 46 46 44 43 41 39 38 36 36 35 34 33 33 34 34 34 34 35 35 36 37 38 39 40 41 42 44 45 47 48 50 50 51 53 55 56
57 54 53 51 50 47 48 48 46 45 43 42 40 38 37 36 35 34 34 34 34 35 35 35 36 37 37 38 39 40 41 42 43 44 46 47 49 50 51 53 54 56 57
57 55 53 52 52 49 48 48 47 46 45 43 40 39 38 37 36 35 35 35 35 35 36 36 36 37 38 38 39 41 41 42 43 45 46 48 50 51 52 54 55 57 58
56 55 53 52 51 50 47 48 48 46 45 43 40 39 39 38 37 36 36 36 36 36 36 36 37 38 38 39 40 41 41 42 44 46 47 49 50 51 53 54 56 57 59
54 54 53 52 51 51 49 49 49 46 44 43 42 41 40 39 37 37 37 36 36 36 36 37 38 38 39 39 40 41 42 43 44 46 48 49 51 52 54 55 56 58 59
53 52 53 51 50 49 49 49 49 47 44 43 42 41 40 39 38 38 38 37 37 37 37 37 38 38 39 40 40 42 42 43 45 47 49 50 51 53 55 55 57 58 58
51 51 51 51 49 47 48 48 48 46 44 43 42 42 41 39 39 39 38 37 37 37 36 37 37 38 39 40 41 42 43 44 45 47 49 50 52 53 54 55 57 58 57
48 50 51 50 50 48 47 47 46 45 43 42 41 41 41 39 39 38 38 38 37 37 36 37 37 38 39 40 41 42 43 45 46 48 49 51 52 53 54 55 56 56 55
47 48 49 49 49 48 46 45 43 43 43 41 41 41 41 39 38 37 37 37 36 37 37 37 37 38 39 40 41 42 44 45 46 48 50 51 52 53 54 54 55 55 54
46 46 49 49 48 47 46 44 43 42 43 42 42 42 41 39 37 37 37 36 36 37 37 36 36 37 39 41 41 42 43 45 46 48 49 51 52 52 52 53 54 53 52
45 46 46 47 47 46 45 44 43 43 41 40 40 40 39 37 36 36 36 35 36 36 36 36 36 37 39 40 41 42 43 45 46 48 49 50 51 51 51 52 51 51 50
44 46 46 46 47 46 45 44 44 43 42 41 39 39 38 36 36 36 35 35 35 36 36 36 36 37 39 40 40 41 43 44 46 47 49 49 50 50 50 50 49 49 49
43 45 46 46 46 46 45 43 43 42 41 40 38 38 37 36 36 36 35 35 35 36 36 36 36 37 38 39 40 41 42 44 45 47 48 48 48 48 47 47 48 48 48
42 43 44 44 46 46 45 42 41 41 41 39 38 37 36 36 36 36 36 35 35 35 35 36 37 37 37 38 39 40 42 43 45 46 47 47 46 46 45 45 47 48 48
43 44 42 43 45 44 43 41 40 40 40 39 38 37 36 35 36 36 36 36 35 35 36 36 36 36 37 38 39 41 43 43 43 44 45 45 44 44 44 45 46 47 48
43 44 44 43 44 44 43 41 39 40 40 39 38 37 36 36 36 36 36 35 35 35 35 34 34 35 36 37 39 40 41 41 41 42 43 43 42 43 44 45 46 47 47
40 42 44 44 43 43 41 40 40 40 40 40 38 36 36 36 35 35 34 34 34 34 33 33 33 34 36 37 38 39 39 39 39 41 42 41 41 42 43 44 46 47 48
37 39 41 42 43 43 42 42 41 41 40 40 39 37 37 36 36 35 35 34 33 32 32 33 34 35 36 37 37 37 37 37 39 39 39 39 40 41 44 46 46 47 47
36 36 38 41 42 42 42 42 42 41 40 39 39 37 36 35 35 34 34 34 33 33 33 34 34 35 36 36 35 36 36 36 37 37 38 38 40 42 44 45 46 46 46

GEFSMA_500_meanwind_162.txt.gz
Wind_Speed
45 45 44 42 41 40 39 38 37 36 35 34 32 31 31 30 29 29 29 28 28 27 27 27 28 28 29 29 30 31 33 33 34 35 36 37 38 39 40 42 43 45 46
48 47 46 45 43 42 41 40 39 38 37 36 34 33 32 31 31 30 30 29 29 28 28 29 29 29 30 31 31 33 34 34 35 36 37 38 39 40 42 43 45 46 47
50 49 48 47 46 44 42 42 41 40 38 38 36 35 33 32 31 31 31 31 30 30 30 30 30 31 31 32 33 33 34 35 36 37 38 39 40 42 43 45 46 47 48
52 51 51 50 49 47 45 44 43 42 41 39 38 37 35 33 32 32 33 32 32 32 31 31 31 32 32 33 34 34 35 36 37 38 39 40 42 43 44 46 47 48 49
55 54 53 52 51 49 47 46 45 44 43 41 39 38 37 36 34 34 34 34 33 33 32 32 33 33 33 34 35 35 36 37 38 39 40 42 43 44 45 47 48 49 50
57 56 55 53 53 52 50 47 46 45 44 43 42 41 39 38 36 35 35 35 35 34 33 34 34 34 34 35 36 36 37 38 39 40 41 42 43 44 46 47 48 50 51
58 58 57 55 54 54 53 51 48 47 46 45 44 42 41 39 38 37 36 35 35 35 34 35 34 34 35 36 37 37 38 39 39 41 42 43 43 45 46 48 49 50 52
58 59 58 57 56 55 54 53 50 49 47 47 45 44 42 41 39 39 37 36 36 36 35 36 36 36 36 37 38 38 39 40 41 42 42 43 44 46 47 49 50 51 53
54 57 58 58 57 56 55 53 52 50 49 48 46 45 43 43 41 40 39 38 37 37 37 37 37 37 37 38 39 39 40 40 41 42 43 44 45 47 48 49 51 52 54
51 52 55 57 58 58 56 54 53 52 51 48 47 46 44 44 43 41 40 39 39 38 37 37 38 38 38 38 39 40 40 41 42 43 44 45 46 47 49 50 52 54 55
52 51 52 55 57 58 57 55 54 52 51 48 48 47 45 44 43 42 40 40 39 38 38 38 39 38 39 39 39 40 41 42 43 43 44 45 47 48 50 51 53 55 55
52 50 49 51 55 56 56 55 54 52 51 50 49 48 46 44 43 42 41 40 40 39 39 39 39 39 39 39 40 41 41 42 42 43 44 46 47 49 50 52 54 54 54
50 49 48 50 52 54 54 54 53 51 51 49 49 47 45 44 44 42 41 42 41 40 40 40 40 40 40 40 40 41 42 42 42 43 45 46 48 49 51 52 52 52 52
49 49 48 48 50 52 53 53 52 51 50 49 49 47 46 45 44 43 42 41 41 40 40 39 40 40 40 40 39 40 41 42 43 44 45 46 48 50 51 51 50 50 50
47 49 49 47 47 50 51 51 50 50 50 48 47 47 45 44 45 44 43 42 42 40 38 37 39 39 39 39 40 41 41 42 43 44 45 46 47 49 49 49 49 48 48
44 46 47 47 47 48 49 49 48 48 48 48 47 46 43 42 44 43 42 42 40 38 38 37 38 38 39 39 40 41 42 42 42 43 45 46 47 47 47 48 48 47 48
43 45 46 45 45 47 49 48 47 46 46 47 47 45 43 42 43 42 42 40 39 39 39 38 38 39 39 39 40 40 40 41 42 44 45 46 46 46 47 47 47 47 48
42 43 44 43 43 46 48 48 46 45 45 46 46 46 44 42 42 41 40 39 38 39 39 38 38 39 39 39 38 39 40 40 42 44 44 45 46 45 45 45 46 47 48
40 41 41 42 42 45 47 47 45 44 45 46 45 45 44 42 41 40 39 38 38 39 39 39 38 38 39 38 37 38 39 40 42 42 43 44 43 43 44 44 45 47 48
36 38 40 41 41 43 46 45 43 43 42 43 44 44 43 42 40 39 38 38 38 39 39 38 37 38 38 37 37 37 39 39 40 41 42 42 41 42 43 44 46 47 48
35 36 38 39 41 42 43 43 42 42 42 42 42 42 42 42 40 39 39 38 38 37 37 37 37 37 36 35 36 37 38 38 39 40 40 40 40 42 42 44 45 46 47
34 35 36 38 40 41 43 43 42 41 42 42 42 42 41 40 40 41 40 38 38 38 37 37 38 37 35 36 36 37 37 37 37 38 39 39 40 41 42 44 44 45 46
32 35 39 37 38 40 41 41 41 39 41 41 43 42 41 39 40 40 38 37 36 36 36 37 36 35 35 35 36 36 35 36 36 37 38 39 40 41 42 43 44 45 46
31 34 37 36 37 38 38 40 40 39 40 40 41 42 40 39 39 39 38 37 36 37 36 36 36 35 35 34 34 34 34 35 36 36 37 38 39 40 41 42 43 44 46
30 32 35 36 37 36 37 38 38 38 38 39 40 40 39 38 38 38 37 36 36 35 34 35 36 36 34 34 34 34 34 34 35 36 37 37 38 39 40 42 43 44 45
28 30 33 35 35 35 35 36 37 36 36 36 39 40 40 38 37 37 37 36 35 34 34 35 34 34 34 34 33 33 33 33 34 35 35 36 38 39 40 41 41 43 45

GEFSMA_500_meanwind_168.txt.gz
Wind_Speed
48 48 47 45 45 44 43 42 40 40 38 37 36 35 34 34 33 32 32 32 31 31 30 29 29 29 29 29 29 29 30 30 31 32 32 33 34 35 36 37 37 39 40
50 50 49 48 47 46 45 44 43 42 41 40 39 38 36 36 35 35 34 34 33 32 32 32 31 31 30 30 30 30 31 31 32 33 33 34 35 36 37 38 39 40 41
52 52 51 50 49 49 48 47 46 45 44 43 42 40 39 38 38 37 36 36 35 34 34 34 33 33 32 32 32 32 32 32 33 33 34 35 36 37 38 39 40 41 43
54 53 52 52 52 51 50 49 48 47 46 46 44 42 41 41 40 39 39 37 37 36 35 34 34 34 33 33 34 33 34 34 34 34 35 36 37 38 39 40 41 43 44
55 54 54 53 53 53 52 51 51 50 49 47 47 45 44 43 42 40 40 39 38 38 37 36 36 35 34 34 34 34 35 35 35 35 36 37 38 39 40 41 43 44 45
57 56 55 54 54 54 54 53 53 52 51 50 49 48 46 45 44 42 41 40 39 39 38 37 36 36 36 35 35 35 35 36 36 36 37 38 39 40 41 42 44 44 46
58 57 57 56 56 55 55 54 54 54 53 52 51 50 49 48 46 44 43 41 41 41 40 38 38 38 38 37 36 36 36 37 37 37 37 38 39 41 42 43 44 45 47
57 58 57 56 56 56 56 56 56 55 55 54 53 52 51 49 48 46 45 43 42 42 41 39 38 39 39 38 38 38 38 38 38 38 38 39 40 42 43 44 45 46 48
54 56 57 57 57 57 57 56 56 57 56 56 55 53 52 51 49 48 46 44 43 42 41 40 40 40 39 39 39 39 39 38 38 39 40 41 41 42 43 44 45 47 48
53 55 55 57 56 55 55 56 56 56 56 56 56 55 54 52 51 50 48 46 44 43 42 42 41 41 40 39 39 39 39 38 39 39 40 41 42 43 44 45 46 48 49
50 52 53 55 55 55 54 55 55 55 55 56 57 56 54 53 52 51 49 48 46 45 43 42 42 41 41 41 40 40 40 39 40 40 40 41 42 43 44 45 47 48 49
47 48 51 53 54 54 53 53 54 54 54 55 56 56 55 53 52 51 49 49 48 46 44 43 42 41 42 41 42 41 39 40 41 41 41 41 42 43 44 46 47 48 48
46 47 48 50 52 53 53 53 51 51 52 53 53 54 54 54 52 51 50 49 47 46 45 44 42 42 41 41 41 41 40 40 41 41 41 42 43 44 46 46 47 47 46
45 46 47 48 50 51 51 50 50 49 50 49 50 52 53 53 51 50 49 48 46 46 45 43 43 42 40 41 41 41 41 40 40 41 41 42 43 45 46 46 47 46 46
45 44 45 46 47 48 48 48 48 48 48 48 48 49 51 51 50 48 48 48 46 45 43 42 42 41 40 41 41 41 40 39 40 41 42 42 43 45 45 46 46 45 45
43 44 43 45 46 46 46 47 47 48 48 46 46 47 49 50 50 47 47 47 45 44 43 43 42 42 41 41 40 41 40 40 40 41 42 42 42 44 44 44 44 43 43
41 43 43 44 44 44 44 45 45 45 46 46 45 45 46 47 48 47 45 44 43 43 43 42 42 42 40 39 39 39 40 40 40 40 42 42 42 43 42 43 43 42 43
39 40 41 41 42 43 43 43 43 44 45 45 44 45 45 45 46 45 44 42 42 43 42 41 41 40 40 39 39 39 39 39 40 41 42 41 42 42 43 42 41 41 42
36 37 38 39 40 42 42 42 42 44 44 44 44 44 44 44 44 44 44 42 41 42 42 41 41 40 39 39 39 38 38 39 40 41 42 41 41 42 42 40 40 40 41
34 34 36 37 38 40 41 41 40 43 43 43 43 43 43 44 44 44 45 43 42 42 41 41 41 40 39 39 38 38 38 39 39 40 41 40 40 40 39 39 39 40 41
31 32 33 34 36 38 39 39 39 40 42 42 42 42 43 43 44 44 44 43 42 42 41 41 40 39 39 39 39 38 38 39 39 39 39 39 38 37 38 38 38 39 40
29 30 32 34 34 35 36 37 38 38 40 40 40 41 42 43 42 42 42 42 41 41 40 40 38 38 37 37 38 37 38 38 37 37 36 36 35 36 36 37 37 38 39
29 30 31 32 32 33 34 34 34 35 38 38 38 39 41 42 41 41 40 41 40 40 40 39 39 39 38 37 37 37 36 36 35 35 35 34 35 35 35 35 36 37 38
28 29 29 30 29 30 31 31 31 32 34 35 36 37 39 39 39 40 40 39 38 38 39 39 39 39 38 37 36 36 36 35 35 34 34 34 34 34 34 34 35 36 38
25 25 25 27 27 28 28 29 30 31 32 32 33 35 37 37 36 38 38 38 38 37 37 38 37 37 37 36 35 36 35 34 33 32 32 33 33 33 33 33 34 36 37
24 24 24 25 26 27 27 27 27 30 31 32 33 33 34 35 36 36 37 37 37 37 37 37 37 36 35 35 34 34 33 33 32 31 31 32 32 32 33 33 34 35 36

GEFSMA_500_meanwind_174.txt.gz
Wind_Speed
48 48 47 46 46 45 45 45 44 43 41 40 39 38 37 36 36 35 34 33 33 32 32 32 32 32 32 32 32 32 31 32 32 32 33 33 33 33 33 34 34 35 36
50 50 50 49 48 47 47 47 45 45 44 43 42 41 40 39 38 37 37 35 35 34 34 34 34 33 33 33 32 33 32 33 33 33 34 34 35 35 35 35 36 37 37
52 52 51 51 51 50 49 48 48 46 45 45 44 43 42 42 41 40 39 38 37 36 36 36 35 35 34 34 34 34 34 34 34 35 35 35 36 36 36 36 37 38 39
54 54 53 53 52 52 51 50 49 48 48 47 46 45 45 44 43 42 41 40 39 39 38 38 37 37 37 36 35 36 36 37 36 36 36 37 37 37 37 38 38 39 40
55 55 55 55 54 54 53 52 51 51 50 50 49 48 47 47 46 45 44 43 41 41 40 39 39 39 38 37 37 37 37 37 38 37 38 38 38 38 38 39 39 40 41
54 55 56 56 56 54 54 53 52 52 52 51 51 50 49 49 48 47 46 44 43 42 42 41 40 40 39 39 38 39 38 38 39 39 39 40 39 39 39 40 40 41 42
52 54 55 55 56 55 55 54 53 54 53 52 52 52 50 50 49 48 47 46 45 44 44 43 42 41 40 40 40 40 40 40 40 40 40 40 40 40 40 41 41 42 43
51 52 53 54 56 56 56 55 54 55 54 53 52 53 52 51 50 50 49 48 47 46 45 45 43 42 41 41 40 40 40 40 40 40 40 40 41 41 41 42 42 43 44
49 50 51 52 53 55 55 55 55 55 54 53 53 52 52 51 51 50 50 50 48 48 47 45 44 43 42 42 41 40 40 40 41 41 42 41 41 42 41 42 42 43 44
47 48 49 50 51 52 53 53 54 54 54 53 53 53 52 51 51 51 51 50 49 49 48 47 45 44 43 42 42 41 41 41 42 42 42 42 42 42 42 42 42 43 44
46 47 48 49 49 50 51 52 52 53 55 54 54 54 53 52 52 52 51 50 50 50 49 48 47 46 45 44 43 42 42 42 43 43 43 42 43 42 43 43 43 44 45
45 46 47 47 48 49 50 50 50 52 53 53 53 53 52 52 52 51 51 51 50 50 51 49 48 47 45 45 44 44 43 43 43 42 42 42 42 42 43 43 44 45 45
44 45 46 46 46 47 47 47 49 48 49 50 51 50 50 50 50 49 49 49 49 49 50 50 49 47 45 45 45 45 44 42 42 42 42 42 43 44 43 43 44 45 45
42 43 44 44 44 45 45 45 46 46 46 47 48 48 49 48 48 48 47 47 48 47 47 47 47 47 47 46 45 44 43 43 42 42 41 42 43 44 44 44 44 44 45
39 41 41 42 42 43 44 44 43 44 45 45 45 46 46 45 45 44 44 44 44 45 45 46 46 46 46 45 44 44 43 42 42 41 41 42 43 43 43 44 43 44 46
38 39 38 39 39 40 41 42 43 43 43 44 44 43 43 44 43 42 42 42 42 43 43 43 44 44 42 42 44 44 42 41 41 41 42 42 42 43 43 43 43 44 46
36 37 37 37 36 37 40 41 41 42 42 42 42 42 41 42 42 40 40 41 42 43 43 42 42 42 41 41 41 41 42 41 40 41 42 41 42 43 43 43 43 45 46
33 34 34 34 34 36 38 39 39 40 40 40 40 39 39 40 41 40 40 40 40 41 41 40 40 41 41 40 40 40 41 40 40 40 41 40 41 41 42 43 43 44 45
31 31 32 33 34 36 36 37 38 37 37 38 38 38 38 38 39 40 41 41 41 41 41 40 39 40 39 38 39 40 41 41 40 39 40 40 40 41 42 42 43 43 43
27 29 31 32 33 34 35 35 35 34 34 35 36 37 36 37 38 40 40 40 40 40 40 40 39 38 37 36 38 40 41 41 39 40 40 40 40 40 41 41 41 41 41
26 28 29 31 32 32 33 32 32 32 32 33 34 35 36 36 37 38 38 38 38 38 39 39 38 37 36 37 38 39 40 39 38 39 39 38 38 39 39 39 39 39 39
27 28 29 29 30 30 30 31 31 30 30 32 33 33 34 34 35 36 37 37 36 37 36 36 37 38 38 38 38 39 38 38 37 37 37 37 37 38 38 37 37 37 36
26 26 27 27 27 27 28 28 29 30 30 30 31 31 32 33 34 36 36 35 36 36 36 36 36 37 37 37 37 37 38 38 36 35 36 35 36 36 35 35 35 36 35
26 25 26 26 26 26 26 27 29 29 29 30 30 30 31 32 33 34 34 35 35 35 34 34 35 36 36 35 35 36 36 37 35 34 35 34 33 33 33 34 34 34 34
26 26 25 25 25 25 26 27 28 28 28 28 29 29 30 30 32 33 32 33 32 32 34 34 35 36 35 35 34 34 34 33 32 31 31 31 31 31 32 32 33 33 33
25 25 25 25 25 25 25 25 26 26 26 26 27 28 28 29 30 30 30 30 31 31 31 31 32 33 33 33 33 32 31 31 30 30 29 29 30 31 31 31 32 32 31

GEFSMA_500_meanwind_180.txt.gz
Wind_Speed
47 47 48 47 47 46 46 45 45 45 44 43 42 41 40 39 38 38 37 37 35 35 34 34 34 34 33 33 33 33 32 33 33 33 33 33 33 34 34 34 34 35 35
48 48 49 49 49 48 47 47 47 47 46 44 43 43 42 42 41 40 39 39 38 37 36 36 35 35 35 35 35 34 34 34 34 34 34 34 35 35 35 35 36 36 37
48 48 49 50 50 49 49 49 48 48 46 46 45 45 44 44 43 43 42 42 41 40 39 38 38 37 38 37 36 36 36 36 36 36 36 36 36 36 37 37 37 38 38
49 49 50 51 51 51 51 50 50 50 50 49 48 48 47 46 46 45 45 44 44 43 42 41 41 40 39 39 38 38 38 38 38 37 37 37 37 37 38 38 39 39 39
49 50 50 52 52 53 52 51 51 51 51 50 50 50 49 49 48 48 47 46 46 45 45 44 43 42 41 40 40 40 40 40 40 39 38 39 39 39 39 39 40 40 40
50 50 50 51 52 53 52 52 52 52 53 52 51 51 51 51 50 49 48 48 47 47 47 46 45 44 44 43 41 41 40 40 40 39 39 39 39 39 40 40 41 42 41
50 50 50 51 51 52 52 52 52 52 54 53 53 53 52 52 50 50 50 49 49 49 48 47 47 46 45 44 43 42 41 42 41 41 41 41 41 41 41 42 42 42 42
48 49 50 50 50 51 51 52 52 53 54 54 54 54 54 53 52 51 51 51 51 50 50 49 48 47 47 46 45 44 43 44 44 43 42 42 42 42 42 42 43 44 44
46 47 49 48 49 50 51 52 52 53 53 54 54 54 54 54 53 51 51 52 52 51 50 50 49 48 48 47 46 45 45 45 45 44 44 43 44 43 43 43 44 44 45
45 46 47 47 48 50 50 51 50 51 51 52 53 53 54 54 53 52 51 51 50 50 50 49 49 49 49 47 47 46 46 46 45 45 45 45 45 44 44 44 44 45 45
44 46 46 47 48 49 50 51 50 49 49 50 51 52 53 53 53 53 51 50 49 49 49 49 49 50 50 48 48 48 47 46 46 46 45 45 45 45 45 45 46 45 45
42 44 47 47 48 48 48 48 49 48 48 48 48 50 51 51 51 52 52 50 49 49 48 48 48 48 49 49 49 48 48 48 47 47 46 45 45 45 46 46 46 45 45
39 40 43 44 46 47 46 46 47 47 45 45 46 48 48 49 50 50 51 51 50 49 48 48 47 48 49 49 49 50 49 48 48 48 47 46 46 46 46 46 45 46 45
37 37 39 40 42 43 45 44 44 44 43 43 44 45 45 46 47 48 49 50 49 48 47 47 46 46 47 48 48 50 49 49 49 49 49 48 47 46 47 46 44 45 45
35 36 37 38 37 39 41 42 41 41 41 42 41 41 42 42 44 45 46 46 47 46 44 43 43 44 45 46 47 48 49 48 48 48 48 49 48 47 46 46 45 45 46
33 34 33 34 35 36 37 39 38 38 39 40 40 40 40 42 42 43 44 45 45 45 43 41 41 42 43 44 45 46 47 47 47 48 48 48 48 47 47 45 45 45 46
32 32 31 31 31 32 33 35 36 36 37 38 38 39 39 41 40 41 43 43 42 43 42 41 42 42 42 42 44 44 45 46 45 46 47 46 46 45 45 43 43 43 43
30 30 30 29 30 30 31 32 34 35 35 36 36 37 37 37 38 39 39 39 39 40 41 41 41 42 42 43 43 43 43 44 44 45 45 44 43 42 42 42 42 43 43
28 27 27 28 28 29 30 30 32 33 33 34 35 34 35 35 35 36 36 36 37 38 39 39 39 40 40 41 41 41 41 42 43 43 43 42 41 41 41 41 42 42 43
26 25 25 26 26 27 28 30 30 31 31 32 33 32 32 33 33 35 35 35 36 36 37 36 36 37 38 39 39 39 40 41 41 41 40 39 39 39 40 40 41 42 43
24 24 24 24 24 26 27 29 29 30 29 30 30 31 32 32 32 33 33 34 34 35 35 35 34 35 36 36 36 38 38 38 38 38 38 37 37 37 40 40 40 41 41
23 22 22 23 24 24 25 27 28 29 29 28 29 31 32 32 31 31 32 33 33 34 35 35 34 33 34 34 35 36 36 35 35 35 36 36 37 37 38 38 39 39 39
22 21 21 22 23 24 26 27 28 28 28 28 29 30 31 30 31 31 32 32 33 33 34 33 33 32 32 32 33 34 34 33 33 33 35 35 36 36 37 37 37 36 35
21 21 21 22 23 25 26 26 26 25 27 28 28 28 28 29 30 32 33 32 32 32 31 31 32 31 31 32 32 32 32 31 31 31 33 34 34 34 35 35 34 33 31
22 22 22 22 23 24 25 26 26 26 26 27 27 28 29 30 31 32 31 30 30 30 31 31 30 31 31 32 32 32 31 30 29 30 32 32 32 32 32 32 31 30 29
24 23 23 24 25 25 25 26 26 27 27 27 28 29 29 30 30 30 29 29 28 28 29 29 30 31 31 31 31 31 30 29 28 27 29 30 30 30 30 29 29 29 28

GEFSMA_500_meanwind_186.txt.gz
Wind_Speed
42 42 43 43 44 45 45 45 46 45 44 43 43 42 42 41 40 39 39 39 39 38 37 36 36 36 36 35 35 35 34 35 35 34 34 34 34 35 34 34 35 36 36
43 44 44 45 45 46 46 46 47 47 46 46 45 44 43 43 42 42 42 41 41 41 40 39 39 38 38 38 37 37 37 37 36 36 36 35 35 35 36 36 37 37 37
44 45 45 45 45 46 47 47 47 48 48 47 47 46 46 45 44 44 44 44 44 43 42 41 41 41 40 40 39 39 40 39 39 39 38 38 37 37 37 38 38 39 39
45 45 45 46 47 47 48 48 48 48 48 48 49 48 48 47 47 46 46 46 45 44 43 42 42 43 42 42 42 42 42 42 42 41 40 40 39 39 39 39 40 40 41
45 46 46 47 47 48 49 49 49 49 49 49 50 49 49 49 49 48 48 48 47 46 46 45 45 45 45 45 44 44 44 44 43 43 42 42 42 41 41 41 41 42 43
45 46 46 47 48 49 49 50 50 50 50 50 50 50 50 50 50 50 49 49 49 48 48 47 47 47 47 47 46 46 45 46 45 44 44 44 44 44 44 44 44 44 44
44 45 46 47 48 49 49 50 51 51 51 51 51 50 50 51 50 50 50 50 50 50 49 49 49 49 49 48 48 48 47 47 47 46 45 45 46 46 46 46 46 46 46
44 46 47 48 49 49 49 50 51 50 50 51 51 51 51 51 51 50 51 51 51 51 51 51 50 50 50 49 49 49 49 49 48 48 47 46 47 48 47 47 47 46 46
44 45 47 47 48 48 49 49 49 49 50 50 52 52 52 53 52 51 51 51 51 51 51 51 50 51 50 50 50 50 50 50 50 50 49 48 48 49 49 48 47 47 48
42 43 44 45 46 47 47 47 48 49 50 50 51 52 52 52 53 52 51 51 50 50 50 50 50 51 51 50 51 51 50 50 50 50 50 49 50 50 50 49 49 50 49
41 41 42 42 43 44 45 46 47 47 48 48 49 50 50 50 51 50 49 49 49 48 48 49 50 50 50 49 50 50 50 50 50 50 50 50 51 50 51 50 51 50 50
40 39 38 38 38 40 42 43 44 45 46 47 46 47 47 48 48 47 47 47 47 46 46 47 48 49 48 48 48 48 49 50 50 49 50 50 50 50 51 52 52 50 50
37 37 37 36 37 37 38 39 40 41 42 43 43 43 44 46 46 45 45 46 45 44 45 46 47 47 47 47 47 48 49 50 50 50 50 50 51 52 52 53 52 51 50
34 35 35 36 35 34 35 35 35 37 39 41 42 41 42 43 43 44 45 44 44 43 43 44 45 46 47 48 48 48 49 49 49 50 50 50 51 51 51 52 52 51 50
33 33 33 33 32 33 33 34 35 36 38 38 39 39 40 40 41 42 43 43 45 44 43 43 44 45 46 46 47 47 47 48 48 48 48 49 50 50 51 51 51 51 50
31 31 31 32 31 32 32 33 33 35 35 36 37 38 38 39 40 40 42 43 44 44 43 42 43 43 44 44 45 45 45 45 46 46 46 48 50 49 48 49 50 49 49
29 30 30 31 31 31 31 31 32 34 34 34 35 36 37 36 36 37 39 40 41 41 40 39 41 41 41 42 43 44 44 43 44 44 46 47 48 48 47 47 47 47 47
28 28 29 29 30 30 30 30 31 32 33 33 35 35 34 34 34 35 36 37 37 37 38 38 38 38 39 40 40 41 42 42 43 44 45 46 46 46 44 44 45 45 45
27 27 27 27 28 28 28 29 30 30 31 32 32 31 31 31 30 31 33 35 35 35 36 37 36 36 38 39 38 39 41 41 42 42 42 42 43 42 42 43 44 44 43
26 26 26 26 27 27 27 28 29 29 28 28 28 29 29 28 28 29 30 32 33 34 35 36 36 36 36 36 38 38 38 40 39 39 40 40 41 42 41 41 41 41 41
24 25 26 27 27 26 27 28 28 28 27 26 27 28 28 27 27 28 29 30 31 33 34 34 34 34 34 34 36 37 38 38 38 38 39 39 39 40 40 38 38 39 39
23 24 26 26 26 26 26 27 26 26 25 25 26 27 27 27 28 28 29 30 31 32 32 33 32 31 31 31 32 35 36 36 36 37 37 37 37 37 37 37 37 37 37
24 25 26 25 26 27 26 24 24 23 24 25 25 26 27 27 27 28 29 30 31 31 32 31 32 31 30 30 31 32 34 34 34 34 34 33 34 34 34 35 36 36 35
25 26 25 25 27 27 26 25 24 24 24 24 25 26 27 27 27 28 29 29 30 31 31 31 31 30 30 30 31 32 33 33 31 31 31 31 30 31 31 33 33 33 32
25 25 25 26 26 26 25 24 24 25 24 25 25 26 28 28 28 29 30 30 30 31 31 31 30 29 29 30 31 32 31 30 29 28 28 27 27 27 28 29 30 31 30
26 26 27 27 26 25 24 24 25 25 24 24 25 27 28 28 28 29 30 30 30 30 30 29 29 29 28 29 30 30 29 28 27 26 26 26 26 25 25 26 27 28 28

GEFSMA_500_meanwind_192.txt.gz
Wind_Speed
38 39 40 40 40 41 41 42 42 42 43 43 43 43 43 42 42 42 41 41 41 41 40 40 39 39 39 40 39 39 38 37 37 36 36 36 36 35 35 35 36 36 36
39 39 39 40 40 41 42 42 42 43 44 44 45 45 45 44 44 44 44 43 44 44 43 43 42 42 42 42 41 41 41 40 40 39 38 38 38 38 37 37 37 37 38
38 39 39 40 41 42 42 43 44 44 44 45 46 46 46 46 46 46 46 46 46 46 46 45 45 45 45 44 44 43 42 41 41 41 41 40 40 40 39 39 39 39 39
39 40 40 41 42 42 43 44 45 45 45 46 47 47 48 47 47 47 47 48 48 47 47 47 47 47 47 46 46 45 45 44 43 43 43 43 42 42 42 42 42 41 41
40 40 41 42 43 43 44 44 45 46 47 47 48 48 49 49 49 49 48 49 49 49 49 48 49 48 48 48 48 48 47 46 45 45 45 45 44 44 45 44 44 43 43
39 40 40 41 42 43 44 45 45 47 48 48 48 49 49 49 50 50 49 49 49 51 51 50 50 50 50 50 50 49 49 48 48 48 48 47 46 47 47 47 45 45 45
38 39 40 41 42 43 44 45 46 47 48 49 49 49 48 48 48 48 49 49 50 51 51 52 52 52 52 52 52 51 51 50 50 50 50 49 49 49 49 49 49 47 47
39 39 40 41 42 43 45 45 45 46 47 48 49 49 48 48 47 47 48 49 50 51 52 52 53 53 53 52 52 51 51 51 51 51 51 51 51 51 50 50 50 49 50
38 38 39 40 41 42 42 43 45 46 47 47 47 48 48 47 46 46 46 48 50 51 52 52 52 52 53 52 52 51 51 50 50 50 51 50 51 52 51 51 51 52 51
37 38 38 39 40 41 41 42 43 44 45 45 45 46 46 46 46 46 46 47 48 49 51 50 50 50 51 51 51 50 50 50 49 50 50 50 50 51 51 52 52 52 53
37 37 38 39 40 40 41 41 41 41 42 43 44 44 45 46 46 46 46 46 46 47 48 49 49 49 49 49 49 49 49 49 49 49 49 49 50 50 51 52 53 53 54
36 37 38 39 39 39 39 39 40 40 41 42 42 42 43 44 44 45 45 45 45 45 46 47 47 48 48 47 47 48 49 49 49 49 49 50 50 50 51 51 53 53 54
36 37 38 38 38 38 38 39 39 39 40 41 41 41 42 42 43 43 44 44 43 44 43 44 44 46 45 46 46 47 47 48 48 48 48 48 49 49 50 51 52 53 53
37 37 37 37 37 37 37 37 37 38 38 39 39 38 39 39 40 41 41 42 42 43 42 43 44 44 44 44 45 45 46 46 46 47 47 47 48 49 50 50 51 52 53
36 36 36 36 36 36 35 35 35 36 36 36 36 36 37 36 37 38 40 40 40 40 41 41 43 44 44 44 44 44 45 46 47 47 46 47 48 48 49 49 50 51 51
35 35 35 35 35 33 32 33 33 34 34 34 34 34 35 36 37 37 38 37 37 38 39 39 40 42 44 44 44 45 46 47 47 45 45 46 46 46 47 48 50 50 49
35 35 34 33 32 31 32 32 33 33 33 32 32 33 34 35 35 36 36 35 36 37 37 38 38 40 41 41 41 42 44 44 43 42 42 44 45 46 47 47 47 47 47
33 32 32 32 31 31 32 32 32 31 31 31 31 30 32 34 34 34 34 34 34 35 35 36 36 38 38 39 39 40 40 40 40 39 39 41 43 44 44 44 43 44 45
31 30 30 30 30 31 31 31 30 29 29 29 30 30 31 31 32 31 31 32 33 33 33 34 34 34 35 36 37 37 37 37 38 37 38 39 40 41 41 41 42 43 44
29 28 28 28 29 30 30 30 29 29 29 28 29 29 30 29 29 30 30 31 30 31 31 32 32 32 32 32 34 34 34 34 35 37 38 38 39 40 39 39 40 41 41
27 27 27 27 28 28 28 27 27 28 27 27 28 28 28 27 27 28 27 27 27 28 29 29 29 29 29 29 30 31 33 33 35 35 35 36 36 37 37 37 37 39 39
26 26 26 26 26 25 25 26 26 26 26 27 28 27 26 26 26 25 26 26 26 27 27 27 26 27 27 28 29 31 32 32 32 32 33 33 33 34 34 34 35 36 36
26 26 26 25 25 25 25 25 25 24 24 26 26 25 24 24 23 24 25 25 26 26 26 26 26 26 27 28 29 30 30 30 29 29 30 30 30 31 31 31 31 32 32
26 26 25 25 25 25 25 25 24 24 24 24 24 24 23 23 23 23 24 24 24 25 25 26 26 26 26 26 27 28 28 28 29 29 30 30 29 29 29 29 30 31 30
25 25 25 25 25 25 24 24 24 24 24 23 23 22 22 22 22 23 23 24 25 25 26 26 26 27 27 27 27 27 27 27 27 28 29 29 28 28 28 27 27 26 25
24 24 24 24 25 24 23 23 24 24 23 22 22 22 21 22 22 23 24 25 26 26 26 26 26 27 27 27 27 27 27 27 26 26 26 26 26 25 24 24 25 24 23

GEFSMA_500_meanwind_198.txt.gz
Wind_Speed
34 35 35 36 37 37 38 38 38 38 39 40 40 41 41 41 41 42 41 42 41 41 41 41 41 41 40 40 40 40 40 40 40 40 40 40 39 39 38 38 38 38 37
35 36 36 37 37 38 38 38 39 39 40 41 42 42 42 43 42 43 43 43 43 42 42 42 42 43 42 42 42 42 42 42 42 42 42 42 42 41 40 40 40 40 40
36 37 37 38 38 38 39 39 40 41 41 42 42 43 43 43 43 43 44 45 45 44 44 44 44 45 45 45 44 44 44 43 44 44 44 44 43 43 43 42 42 42 42
36 37 37 38 38 39 40 40 41 41 41 41 42 42 43 44 44 45 45 46 46 45 45 46 46 46 46 46 46 46 46 46 46 46 46 46 46 45 45 45 45 45 45
36 37 37 38 39 39 40 41 41 42 42 42 42 43 44 45 45 45 46 46 47 47 47 47 47 47 47 47 48 48 48 47 48 48 48 48 48 47 47 47 47 47 47
36 37 37 38 39 39 40 41 41 42 42 42 42 43 43 45 46 46 47 47 47 48 48 48 48 48 47 48 48 48 49 49 49 49 49 49 49 49 49 49 49 49 48
36 36 37 37 37 38 39 39 39 40 41 41 42 42 43 44 45 46 47 47 48 49 49 48 47 47 47 48 49 50 49 49 50 50 50 50 51 51 51 51 50 50 49
36 36 37 37 37 37 38 39 39 40 41 41 42 42 42 43 44 46 46 47 47 47 48 47 47 48 48 49 50 50 49 49 49 49 49 49 50 50 50 50 50 50 50
36 36 36 36 36 37 38 39 40 41 41 41 42 43 43 43 44 45 46 45 45 45 46 46 47 49 49 49 49 48 47 47 47 47 47 48 49 48 49 49 50 50 50
36 35 35 36 37 37 38 39 39 40 41 41 42 42 43 44 45 45 44 44 44 44 45 46 47 47 48 49 48 47 47 47 47 47 48 48 48 47 47 48 48 49 50
36 36 36 37 37 38 38 39 39 40 40 40 41 42 43 44 44 44 43 42 43 45 45 46 47 48 47 46 46 47 48 49 49 49 49 48 47 46 47 48 49 49 49
36 36 37 37 38 39 39 40 40 40 39 40 41 42 42 41 41 41 42 42 42 43 44 45 46 47 47 47 47 47 48 48 49 49 49 49 48 48 48 48 49 50 50
36 36 37 38 39 39 40 40 40 40 40 39 40 40 40 39 39 39 40 40 40 40 41 41 43 43 44 45 45 46 47 47 47 48 48 49 49 48 48 49 49 50 50
36 37 37 38 38 39 39 40 39 39 38 38 38 37 37 37 38 38 38 38 38 38 38 38 38 39 40 42 43 44 44 45 46 46 47 48 48 49 50 50 50 49 49
37 37 37 37 38 38 38 38 37 36 36 36 35 35 35 36 37 37 37 37 36 37 36 36 37 37 38 39 40 41 41 42 43 44 45 46 47 48 49 49 49 48 48
37 37 37 37 37 37 37 36 35 34 34 34 34 34 34 35 35 36 36 36 35 35 34 34 36 36 37 37 38 39 39 40 41 42 43 45 46 46 46 47 46 46 47
37 36 36 36 36 35 35 34 34 34 33 33 33 33 33 33 34 34 34 34 34 33 34 33 34 35 35 35 35 36 37 38 40 41 41 42 43 43 43 43 43 43 42
36 35 35 35 34 34 33 33 33 32 32 31 32 32 31 31 32 32 31 32 32 32 32 32 33 34 33 33 33 34 35 37 38 39 39 39 40 40 40 40 39 39 38
35 35 34 33 33 33 32 32 31 31 30 30 30 31 31 30 30 29 29 30 31 31 32 32 32 32 32 32 32 32 33 34 36 36 36 37 37 37 37 36 37 37 36
34 33 33 33 33 32 32 31 30 29 29 29 29 29 29 29 30 29 29 30 30 30 30 30 31 30 30 30 30 31 32 32 33 34 34 34 34 33 34 34 35 35 34
32 31 31 32 32 32 31 31 30 29 28 28 28 28 28 29 29 29 29 29 28 28 28 28 28 28 28 28 29 29 30 30 31 32 32 31 31 31 32 33 33 32 31
30 30 31 31 31 31 30 29 28 28 27 27 27 27 28 28 29 28 28 27 27 26 26 26 26 26 26 27 27 27 29 29 29 29 29 29 28 30 31 31 31 30 30
28 28 29 29 29 28 28 27 27 27 27 26 27 28 28 28 28 28 26 25 24 24 25 25 24 24 24 25 26 27 27 28 27 27 26 26 27 29 29 30 29 28 28
27 28 28 28 28 27 26 26 26 26 26 26 27 28 28 28 27 26 25 24 24 24 23 23 23 23 24 25 25 26 25 26 25 25 25 26 27 27 27 27 26 25 25
27 28 28 27 26 26 25 25 25 25 25 25 26 27 26 25 25 25 24 23 23 22 22 22 22 22 23 24 25 24 24 24 24 25 25 26 26 26 25 26 26 25 24
27 27 27 26 25 24 24 24 24 24 25 25 25 25 25 25 24 23 23 23 21 21 22 22 22 22 23 24 24 24 23 24 25 25 24 24 24 24 24 24 24 24 23

GEFSMA_500_meanwind_204.txt.gz
Wind_Speed
30 31 31 32 33 34 34 35 36 36 37 38 39 39 39 40 40 41 40 40 41 42 42 42 41 41 41 41 41 42 42 41 41 39 39 39 40 40 39 39 40 40 39
31 32 33 33 34 34 35 36 36 37 38 38 39 39 40 41 41 42 42 42 42 43 43 42 42 43 44 43 44 44 44 43 43 42 41 42 42 42 42 42 42 42 42
33 33 34 34 34 35 36 37 37 38 38 39 39 40 41 41 41 41 42 43 44 44 43 43 43 44 45 45 45 46 45 45 45 44 44 43 43 43 43 43 43 43 43
34 34 34 35 35 36 37 37 37 38 38 38 38 39 39 40 41 41 41 42 43 44 44 44 45 45 45 46 46 46 47 47 46 46 45 45 45 45 45 44 44 45 44
35 35 35 36 36 36 36 37 37 37 37 37 38 38 38 39 39 40 41 42 43 44 44 45 45 45 45 46 46 47 47 47 47 48 47 47 46 46 47 46 46 47 47
35 35 36 36 36 36 36 36 36 37 37 37 37 38 39 39 39 39 40 41 42 44 45 46 46 46 46 47 47 47 48 48 48 47 48 47 46 47 47 47 48 47 48
35 36 36 36 36 36 36 37 36 36 37 37 38 38 38 39 39 40 40 41 42 43 45 46 47 47 48 47 48 47 48 48 49 48 48 47 46 46 46 46 48 49 48
35 35 36 36 36 36 37 37 37 37 38 39 39 39 39 39 40 40 41 42 43 44 45 46 47 47 47 47 48 47 47 47 49 48 47 47 45 45 46 47 48 48 47
35 36 36 36 36 36 37 37 37 38 39 39 40 40 40 40 40 40 41 43 43 43 44 45 45 45 46 46 46 46 47 47 48 49 48 48 47 47 48 49 48 48 48
35 36 36 36 36 37 37 37 38 39 39 39 40 41 41 42 42 41 40 40 41 41 42 43 43 44 44 45 45 45 46 46 48 49 49 50 50 50 50 50 49 48 49
34 35 36 36 36 36 37 37 38 38 39 39 40 40 41 41 41 41 39 38 39 40 41 42 42 42 42 43 44 46 47 46 46 48 49 50 50 50 50 49 49 49 50
34 35 36 36 36 36 37 37 37 38 38 38 39 40 40 39 38 38 38 38 38 38 39 39 38 39 40 42 44 45 46 45 46 47 47 48 49 49 48 48 50 50 50
34 35 35 36 35 35 35 36 37 37 37 38 38 38 38 37 36 36 36 36 36 36 36 36 36 37 38 40 42 42 43 44 44 45 46 47 47 48 48 49 50 49 49
34 35 35 35 34 34 34 35 36 36 37 37 37 36 35 35 34 35 35 35 34 34 34 33 34 35 36 37 37 37 38 39 40 41 43 44 45 47 47 48 48 48 48
34 34 34 33 34 34 34 35 35 36 36 35 34 34 34 34 34 34 34 35 35 34 33 33 34 34 35 36 35 35 35 35 37 38 39 41 43 45 46 46 46 46 45
33 33 34 34 34 34 35 35 35 35 35 34 33 33 33 34 34 34 35 35 34 34 32 32 32 33 34 33 33 33 34 35 35 36 37 39 40 42 42 43 43 43 43
33 34 34 34 34 34 34 34 34 34 33 33 33 33 34 34 34 34 34 33 32 32 31 31 32 33 32 30 30 31 31 33 34 35 35 35 37 37 37 38 39 39 40
33 33 33 33 33 33 33 33 33 32 32 32 32 33 33 33 33 33 32 31 30 31 31 31 31 31 30 29 29 30 31 31 32 32 33 34 34 34 33 33 34 35 36
33 32 32 32 32 32 32 32 32 31 31 31 31 31 31 31 31 31 30 30 30 30 29 29 29 28 28 27 28 29 30 31 31 32 32 32 31 30 30 31 32 32 33
30 30 31 31 32 32 31 31 31 31 30 30 30 29 30 29 29 29 29 29 29 29 28 28 28 27 27 26 27 28 28 29 30 30 30 30 29 29 30 30 30 30 30
29 29 30 30 31 31 31 31 30 30 29 29 29 29 29 29 28 29 28 28 28 28 28 28 27 26 25 24 26 27 28 27 28 28 28 28 28 28 29 29 28 27 28
29 29 29 30 30 31 30 30 30 29 29 28 28 28 29 29 28 28 28 27 28 28 27 27 25 24 23 24 26 26 26 26 26 27 26 26 26 27 27 27 27 27 27
28 27 27 28 28 28 28 28 29 28 28 28 28 28 28 28 28 28 28 28 28 27 25 24 23 22 22 24 24 24 24 23 24 25 25 25 25 25 25 25 26 25 25
27 27 27 27 26 26 27 27 27 27 28 27 27 27 28 27 27 28 28 27 25 24 24 23 22 22 22 22 23 23 23 23 23 24 25 25 24 24 23 24 25 26 26
26 26 26 26 25 25 26 26 26 27 27 27 27 27 28 27 27 27 26 24 23 22 22 21 20 21 21 22 23 23 22 22 23 24 25 25 24 24 24 24 25 25 25
25 25 25 25 25 25 25 25 25 26 26 26 26 27 26 26 25 24 23 22 21 21 20 20 20 21 21 21 22 22 22 23 24 25 25 24 24 24 25 24 24 24 23

GEFSMA_500_meanwind_210.txt.gz
Wind_Speed
28 29 29 30 30 31 31 32 33 33 34 35 35 36 37 38 39 39 39 39 39 39 39 39 39 40 40 41 41 42 42 43 42 42 41 42 42 41 41 41 40 40 40
29 29 30 30 30 31 32 33 33 34 35 36 36 37 38 39 39 39 38 38 39 39 39 39 40 40 41 41 42 43 43 43 43 43 43 44 43 43 43 42 43 42 42
30 30 30 31 32 32 33 34 34 35 36 37 37 38 38 38 39 38 38 39 39 39 39 40 40 42 42 42 43 44 44 43 45 44 44 45 45 45 44 44 44 43 43
31 31 31 32 33 33 34 34 35 36 36 37 37 37 37 37 38 38 38 38 39 39 39 40 41 42 42 43 44 44 45 45 45 46 46 45 45 46 45 45 45 46 46
32 32 32 33 34 34 34 34 35 35 36 36 36 36 37 37 38 38 38 39 39 39 40 40 41 41 42 42 43 44 44 45 45 46 45 45 46 46 46 46 46 47 47
32 33 33 34 34 34 34 34 35 36 36 36 36 36 36 37 38 39 39 39 40 40 40 40 40 41 42 42 44 44 44 44 44 44 44 45 46 46 46 47 47 47 47
33 33 33 34 34 34 35 35 36 36 36 36 36 36 36 38 39 39 39 40 40 40 40 41 41 42 42 42 43 44 44 43 42 43 45 46 47 48 47 45 47 47 47
33 33 34 34 34 35 35 36 36 36 36 36 36 36 37 38 39 39 39 40 40 40 40 41 41 41 42 42 42 42 42 43 43 43 44 45 46 47 47 47 48 49 48
33 33 34 34 34 35 35 35 35 35 36 36 36 37 37 37 37 37 38 39 39 40 40 40 40 40 40 40 40 40 41 42 42 43 43 45 45 45 45 46 47 47 48
33 33 33 34 34 34 34 35 35 35 35 36 37 37 37 37 37 36 36 37 38 38 39 39 39 39 39 39 39 40 40 40 41 42 42 43 44 44 46 46 46 47 48
33 33 33 34 34 34 35 34 34 34 35 36 36 36 36 36 37 36 35 35 36 37 38 38 38 38 38 38 39 40 40 40 41 41 42 43 44 45 46 45 45 45 46
33 33 34 34 34 34 34 34 35 35 35 35 35 35 36 36 36 37 36 35 35 35 36 37 37 37 37 38 38 39 39 38 39 40 42 43 43 44 44 44 45 45 46
34 34 34 34 35 35 34 34 35 35 34 34 34 35 35 36 36 37 37 36 36 35 36 36 36 37 37 37 38 38 38 38 38 39 41 42 42 42 42 43 43 44 43
34 34 34 35 35 35 35 34 35 34 34 33 34 34 35 35 36 37 37 37 37 36 35 35 36 36 37 37 36 36 37 38 38 37 37 38 39 40 40 41 41 41 41
34 34 34 34 34 34 34 34 34 34 34 34 34 34 34 35 36 37 37 37 37 37 35 35 35 35 35 35 34 34 36 37 37 37 36 36 36 37 39 39 39 38 37
34 34 33 33 34 34 34 34 33 33 34 34 34 34 34 34 35 36 35 36 36 36 35 34 33 33 33 33 34 34 34 34 34 33 34 34 34 35 36 36 36 35 35
33 33 33 33 33 33 34 34 33 33 34 34 34 34 34 34 34 34 35 35 35 35 35 33 33 33 33 33 33 32 32 31 31 32 33 33 32 32 32 32 32 33 33
33 33 33 33 33 33 34 34 33 33 33 33 34 34 34 34 34 33 34 34 34 34 35 34 33 32 33 32 30 30 30 29 29 30 30 31 31 31 31 30 31 31 31
33 33 33 33 33 34 34 34 34 33 33 33 33 33 33 33 33 33 33 33 33 33 34 34 32 31 31 30 29 28 28 28 28 28 29 30 30 30 29 29 29 30 31
34 33 33 32 32 33 33 34 33 32 32 32 32 32 32 32 33 33 33 33 33 33 33 32 31 30 28 27 26 25 26 27 27 27 27 28 29 29 28 29 29 30 30
34 34 33 32 32 32 32 33 32 32 32 31 31 31 31 32 32 32 32 32 32 32 30 29 28 28 27 26 25 25 25 25 25 25 26 27 28 28 27 28 28 29 29
34 34 33 32 32 32 31 31 31 31 31 31 30 30 30 31 31 31 32 32 31 30 29 28 26 25 24 24 24 24 24 24 23 23 24 26 26 26 26 26 27 27 28
34 34 33 32 31 31 30 30 31 31 31 30 30 30 30 30 30 31 31 30 29 29 27 26 24 22 22 23 23 24 23 22 23 24 25 25 26 27 26 25 26 27 26
32 32 32 31 31 30 30 30 30 30 30 30 30 30 30 30 30 30 29 28 27 26 25 23 22 21 22 22 23 23 22 22 24 25 25 25 26 26 26 25 24 25 25
30 30 30 30 30 30 30 29 29 29 29 29 29 29 29 29 29 28 26 25 24 24 23 22 22 21 21 21 22 22 22 22 24 25 25 26 26 27 26 25 25 25 25
29 28 28 28 28 28 28 28 29 29 29 29 29 28 27 27 26 25 24 23 23 22 22 22 22 22 22 22 21 20 21 22 24 25 26 26 27 27 26 25 25 25 25